Zurück zum Katalog

KINEIS-1D

AktivKommunikationSSO
NORAD 60082·PAYLOAD·🇫🇷 France

Gestartet Jun 20, 2024 von Rocket Lab Launch Complex 1

Loading…

Nächste Überflüge (nächste 24 Stunden)

TLE

AktuellSource: Space-Track

Epoche: Sep 14, 2026, 23:32 UTC

1 60082U 24114D   26257.98057203  .00000431  00000-0  69314-4 0  9999
2 60082  97.9874 277.1421 0000162 150.6441 209.4778 14.76422324120371

Verfolge KINEIS-1D in Echtzeit mit AllMySat

Download on the App Store